[[{"header":{"parameterUnit":"m.s-1","parameterCategory":1,"la1":30.2991,"la2":30.254,"lo1":-89.0895,"lo2":-89.0444,"dy":0.0017,"dx":0.0017,"nx":28,"ny":28,"refTime":"2023-04-20T21:00:00:Z","depth":0,"parameterNumber":2,"parameterNumberName":"U-component_of_WINDS"},"data":[0,0,0,0,0,0,0,0,0,0,0,0,0,0,0,0,0,0,0,0,0,0,0,0,0,0,0,0,0,0,0,0,0,0,0,0,0,0,0,0,0,0,0,0,0,0,0,0,0,0,0,0,0,0,0,0,0,0,-3.911,-3.911,0,-3.9158,-3.9159,-3.916,-3.9121,-3.9119,-3.9117,-3.9116,-3.9166,-3.9169,-3.9172,0,0,0,0,0,0,0,0,0,0,0,0,0,-3.8985,-3.8988,-3.911,-3.911,-3.9111,-3.9158,-3.9159,-3.916,-3.9121,-3.9119,-3.9117,-3.9115,-3.9165,-3.9168,-3.9172,0,0,0,0,0,0,0,0,0,0,0,0,0,-3.9037,-3.8989,-3.911,-3.9098,-3.9097,-3.9158,-3.9159,-3.916,-3.9121,-3.9119,-3.9117,-3.9114,-3.9164,-3.9168,-3.9172,-3.9248,0,0,-3.9185,-3.9187,0,0,0,0,0,0,0,0,-3.9034,-3.9042,-3.9099,-3.9098,-3.9098,-3.9131,-3.9133,-3.919,-3.9122,-3.9112,-3.9116,-3.9113,-3.9156,-3.9161,-3.9176,-3.9251,-3.9253,-3.9186,-3.9188,-3.919,-3.9192,0,0,0,0,0,0,0,-3.9031,-3.9039,-3.9129,-3.91,-3.9099,-3.909,-3.9095,-3.9144,-3.9148,-3.9113,-3.911,-3.9116,-3.9156,-3.9172,-3.9177,-3.9254,-3.9186,-3.919,-3.9192,-3.9194,-3.9395,-3.9397,0,0,0,0,0,0,-3.9028,-3.9037,-3.9128,-3.9131,-3.9059,-3.9094,-3.91,-3.9123,-3.9147,-3.9148,-3.9118,-3.9114,-3.9165,-3.9172,-3.9178,-3.9269,-3.919,-3.9194,-3.9197,-3.9392,-3.9395,-3.9398,0,0,0,0,0,0,-3.9026,-3.9037,-3.9126,-3.9083,-3.9094,-3.9099,-3.9126,-3.9125,-3.9141,-3.9151,-3.9152,-3.9134,-3.9164,-3.9172,-3.9231,-3.927,-3.9196,-3.92,-3.9389,-3.9393,-3.9397,-3.9451,0,0,0,0,0,0,-3.9022,-3.9036,-3.9064,-3.9084,-3.9096,-3.9178,-3.9128,-3.9128,-3.9148,-3.9144,-3.9166,-3.9167,-3.9162,-3.9225,-3.9236,-3.9275,-3.9204,-3.9385,-3.9391,-3.9396,-3.9446,-3.9456,-3.9465,0,0,0,0,0,-3.9018,-3.9077,-3.9066,-3.9077,-3.9132,-3.918,-3.9187,-3.918,-3.9152,-3.9181,-3.9188,-3.9166,-3.9265,-3.9232,-3.9243,-3.9284,-3.9383,-3.9389,-3.9395,-3.9441,-3.9454,-3.9465,0,0,0,0,0,0,-3.9062,-3.908,-3.9067,-3.9135,-3.9156,-3.9173,-3.9209,-3.9194,-3.9224,-3.9218,-3.9209,-3.9214,-3.9277,-3.9287,-3.9249,-3.936,-3.9319,-3.9328,-3.935,-3.9363,-3.9373,-3.9368,-3.9207,0,0,0,0,0,-3.908,-3.9117,-3.9131,-3.9189,-3.9201,-3.9203,-3.9224,-3.9217,-3.9239,-3.9248,-3.9259,-3.9281,-3.9317,-3.9341,-3.9374,-3.9448,-3.9452,-3.9482,-3.9492,-3.95,-3.9507,-3.9547,-3.956,-3.9419,-3.9419,-3.9419,0,0,-3.9116,-3.913,-3.9154,-3.9198,-3.9214,-3.9253,-3.9211,-3.9254,-3.9283,-3.9254,-3.9311,-3.932,-3.9345,-3.9412,-3.9441,-3.9422,-3.9548,-3.9508,-3.9514,-3.9517,-3.9555,-3.9568,-3.958,-3.9423,-3.9422,-3.9422,0,0,-3.9202,-3.9217,-3.9267,-3.9285,-3.9309,-3.9311,-3.9324,-3.9344,-3.9349,-3.9405,-3.9385,-3.942,-3.9482,-3.95,-3.9518,-3.9614,-3.9596,-3.9626,-3.9677,-3.9716,-3.9727,-3.9737,-3.9771,-3.9783,-3.9633,-3.9633,-3.9633,0,-3.9244,-3.9302,-3.9295,-3.934,-3.936,-3.9337,-3.9388,-3.9405,-3.944,-3.9455,-3.9432,-3.951,-3.9525,-3.9596,-3.962,-3.9635,-3.9649,-3.9622,-3.9726,-3.9736,-3.9745,-3.9777,-3.979,-3.9637,-3.9636,-3.9636,-3.9636,0,-3.9353,-3.9394,-3.9431,-3.9466,-3.949,-3.9538,-3.9539,-3.9565,-3.9557,-3.9562,-3.9621,-3.9638,-3.9675,-3.9692,-3.9685,-3.9763,-3.975,-3.9727,-3.9686,-3.9762,-3.9792,-3.9804,-3.9641,-3.964,-3.9639,-3.9638,0,0,-3.9465,-3.9497,-3.951,-3.9526,-3.9553,-3.9584,-3.9633,-3.9669,-3.9691,-3.9717,-3.9757,-3.9811,-3.9791,-3.9811,-3.9805,-3.984,-3.9915,-3.9813,-3.9814,-3.9831,-4.0003,-4.0018,-4.0033,-3.9904,-3.9907,-3.9909,-4.0,0,-3.9552,-3.9634,-3.963,-3.9708,-3.9746,-3.9726,-3.9767,-3.9789,-3.9795,-3.9829,-3.9836,-3.9874,-3.9845,-3.9857,-3.989,-3.9899,-3.9949,-3.9893,-3.9941,-3.9943,-3.9934,-4.0048,-4.0065,-4.015,-4.0012,-4.0014,-4.0015,0,-3.9663,-3.9693,-3.9774,-3.9796,-3.9812,-3.985,-3.9883,-3.9916,-3.994,-3.9943,-3.9966,-3.9956,-4.0005,-3.9965,-4.0033,-3.9994,-4.0015,-4.0022,-4.0026,-4.0028,-3.9982,-4.0053,-4.0177,-4.019,-4.0034,-4.0033,-4.0031,0,-3.9736,-3.9797,-3.9853,-3.9867,-3.9895,-3.9922,-3.9935,-3.9957,-3.998,-4.001,-4.0025,-4.006,-4.008,-4.0108,-4.0108,-4.0079,-4.0177,-4.0136,-4.018,-4.018,-4.02,-4.0198,-4.0327,-4.0215,-4.0215,-4.0215,-4.0215,0,-3.9833,-3.9883,-3.9886,-3.9921,-3.9977,-3.9973,-4.0029,-4.004,-4.006,-4.0097,-4.0082,-4.0117,-4.0116,-4.0152,-4.0153,-4.0209,-4.0218,-4.0221,-4.022,-4.0222,-4.0221,-4.0233,-4.0227,-4.0218,-4.0218,-4.0217,-4.0216,0,-3.9922,-3.9927,-3.9987,-4.0009,-4.0016,-4.0056,-4.0075,-4.0109,-4.0115,-4.0161,-4.0172,-4.0182,-4.0224,-4.0227,-4.0275,-4.0276,-4.0344,-4.0337,-4.0335,-4.0334,-4.0377,-4.0372,-4.0517,-4.0536,-4.0413,-4.0414,-4.0415,0,-3.9983,-4.0021,-4.0047,-4.0071,-4.0085,-4.0124,-4.0147,-4.0146,-4.0171,-4.0203,-4.0233,-4.0273,-4.0305,-4.0373,-4.0384,-4.0421,-4.0415,-4.0464,-4.042,-4.0421,-4.0415,-4.0412,-4.0416,-4.0471,-4.0472,-4.0474,-4.0474,0,-4.0089,-4.009,-4.0124,-4.0159,-4.0188,-4.0216,-4.0242,-4.0262,-4.0264,-4.0293,-4.0336,-4.0361,-4.0411,-4.0451,-4.0488,-4.0502,-4.0489,-4.0488,-4.05,-4.0501,-4.0498,-4.0499,-4.0357,-4.0484,-4.0483,-4.0483,-4.0482,-4.0482,-4.0165,-4.0198,-4.0222,-4.0261,-4.0281,-4.0306,-4.0339,-4.035,-4.0385,-4.0425,-4.0423,-4.047,-4.0495,-4.0544,-4.0561,-4.0598,-4.0582,-4.0599,-4.0603,-4.0607,-4.0611,-4.0493,-4.0605,-4.0605,-4.0605,-4.0604,-4.0604,0,-4.027,-4.0285,-4.0321,-4.0358,-4.0389,-4.0375,-4.0404,-4.043,-4.0472,-4.0497,-4.0529,-4.0579,-4.0618,-4.0634,-4.0673,-4.07,-4.0695,-4.071,-4.0707,-4.0711,-4.0624,-4.0609,-4.0714,-4.0714,-4.0714,-4.0714,-4.0713,-4.0713,-4.0328,-4.0383,-4.0387,-4.0453,-4.0468,-4.0514,-4.0532,-4.0555,-4.0575,-4.0631,-4.0664,-4.0674,-4.0696,-4.0737,-4.0773,-4.0777,-4.0791,-4.0809,-4.081,-4.0728,-4.0717,-4.0706,-4.0692,-4.0812,-4.0812,-4.0893,-4.0894,-4.0895]},{"header":{"parameterUnit":"m.s-1","parameterCategory":1,"la1":30.2991,"la2":30.254,"lo1":-89.0895,"lo2":-89.0444,"dy":0.0017,"dx":0.0017,"nx":28,"ny":28,"refTime":"2023-04-20T21:00:00:Z","depth":0,"parameterNumber":3,"parameterNumberName":"V-component_of_WINDS"},"data":[0,0,0,0,0,0,0,0,0,0,0,0,0,0,0,0,0,0,0,0,0,0,0,0,0,0,0,0,0,0,0,0,0,0,0,0,0,0,0,0,0,0,0,0,0,0,0,0,0,0,0,0,0,0,0,0,0,0,2.3168,2.3168,0,2.3169,2.3169,2.3169,2.3197,2.3198,2.3198,2.3199,2.3198,2.3197,2.3197,0,0,0,0,0,0,0,0,0,0,0,0,0,2.3187,2.3187,2.3168,2.3168,2.3168,2.3169,2.3169,2.3169,2.3197,2.3198,2.3199,2.3199,2.3198,2.3197,2.3196,0,0,0,0,0,0,0,0,0,0,0,0,0,2.3183,2.3186,2.3168,2.3182,2.3183,2.3169,2.3169,2.3169,2.3197,2.3198,2.3199,2.32,2.3198,2.3197,2.3196,2.3168,0,0,2.3193,2.3193,0,0,0,0,0,0,0,0,2.3183,2.3182,2.318,2.3181,2.3182,2.3184,2.3176,2.3169,2.3196,2.3191,2.3199,2.32,2.3192,2.3192,2.319,2.3168,2.3168,2.3193,2.3192,2.3192,2.3192,0,0,0,0,0,0,0,2.3183,2.3182,2.3168,2.318,2.3181,2.3188,2.3188,2.3175,2.3186,2.3192,2.3194,2.3194,2.3193,2.3191,2.319,2.3168,2.3193,2.3192,2.3191,2.3191,2.3126,2.3125,0,0,0,0,0,0,2.3182,2.3182,2.3168,2.3168,2.3185,2.3186,2.3187,2.3182,2.3186,2.3188,2.3193,2.3195,2.3192,2.3191,2.319,2.3159,2.3192,2.3191,2.319,2.3127,2.3126,2.3125,0,0,0,0,0,0,2.3182,2.318,2.3168,2.3176,2.3175,2.3185,2.3179,2.3182,2.3179,2.3187,2.3189,2.3188,2.3193,2.3191,2.3174,2.3159,2.319,2.319,2.3128,2.3127,2.3125,2.3095,0,0,0,0,0,0,2.3182,2.318,2.317,2.3175,2.3174,2.3153,2.3179,2.3181,2.3178,2.3181,2.3183,2.3184,2.3193,2.3176,2.3173,2.3158,2.3189,2.313,2.3128,2.3126,2.3097,2.3092,2.3088,0,0,0,0,0,2.3183,2.316,2.3169,2.3167,2.3162,2.3152,2.3151,2.3163,2.3176,2.3166,2.3171,2.3184,2.3161,2.3174,2.3171,2.3155,2.3131,2.3128,2.3126,2.3099,2.3093,2.3088,0,0,0,0,0,0,2.3151,2.3161,2.3171,2.3149,2.315,2.3156,2.3143,2.3156,2.3151,2.3154,2.3168,2.3168,2.3149,2.315,2.3164,2.3129,2.3148,2.3145,2.3129,2.3123,2.3119,2.3119,2.3188,0,0,0,0,0,2.3142,2.3133,2.3142,2.3122,2.3122,2.3133,2.3129,2.3138,2.3139,2.3138,2.3142,2.3141,2.3134,2.3129,2.3122,2.3098,2.3099,2.3086,2.3081,2.3078,2.3075,2.3063,2.3057,2.3116,2.3116,2.3116,0,0,2.3122,2.3126,2.312,2.3116,2.3117,2.3108,2.3133,2.3121,2.3115,2.3136,2.3121,2.3124,2.3124,2.3103,2.3094,2.3104,2.3059,2.3074,2.3071,2.307,2.306,2.3054,2.3049,2.3115,2.3115,2.3115,0,0,2.3081,2.3083,2.3068,2.3069,2.3071,2.3079,2.3075,2.3081,2.3084,2.3069,2.3085,2.3078,2.3064,2.3064,2.3062,2.3024,2.3036,2.3021,2.2998,2.2986,2.2981,2.2977,2.2964,2.2959,2.3019,2.3018,2.3018,0,2.3055,2.3043,2.3058,2.3046,2.3045,2.3065,2.305,2.305,2.305,2.3048,2.3059,2.3044,2.3046,2.3026,2.3017,2.3014,2.3011,2.3021,2.2981,2.2977,2.2974,2.2961,2.2956,2.3017,2.3017,2.3017,2.3017,0,2.3012,2.3004,2.2991,2.2992,2.2988,2.2975,2.2987,2.2982,2.2992,2.2999,2.2984,2.2987,2.2982,2.2978,2.2987,2.296,2.2966,2.2979,2.2998,2.2966,2.2955,2.295,2.3014,2.3015,2.3015,2.3016,0,0,2.295,2.2961,2.2956,2.2957,2.2962,2.2956,2.2943,2.294,2.2936,2.2935,2.2925,2.2915,2.2928,2.2926,2.2935,2.2925,2.2895,2.2939,2.2939,2.2931,2.2867,2.2857,2.2851,2.2904,2.2903,2.2902,2.2867,0,2.2911,2.2892,2.2905,2.2883,2.2876,2.2897,2.2886,2.2888,2.2894,2.2889,2.2895,2.2888,2.2905,2.2904,2.2895,2.2901,2.2883,2.2904,2.2895,2.2894,2.2894,2.2845,2.2835,2.2801,2.2863,2.2862,2.2861,0,2.2863,2.2862,2.284,2.2848,2.2846,2.2836,2.2835,2.2829,2.2832,2.2838,2.2836,2.2849,2.2838,2.2857,2.2842,2.2856,2.2853,2.2856,2.2855,2.2854,2.2876,2.2844,2.2791,2.2786,2.2854,2.2855,2.2856,0,2.2821,2.2814,2.28,2.2801,2.281,2.2803,2.2806,2.281,2.2808,2.2807,2.2805,2.2802,2.2801,2.2798,2.281,2.2823,2.2793,2.2813,2.2797,2.2797,2.2789,2.279,2.2735,2.2788,2.2788,2.2788,2.2788,0,2.2776,2.2761,2.2782,2.2773,2.2758,2.2774,2.2758,2.2764,2.2768,2.276,2.2778,2.277,2.2786,2.278,2.2789,2.2776,2.2775,2.2779,2.2781,2.2777,2.2777,2.2775,2.2778,2.2786,2.2787,2.2787,2.2787,0,2.2725,2.2738,2.2725,2.2735,2.2738,2.2726,2.2735,2.2727,2.2736,2.2726,2.2725,2.2737,2.2732,2.2744,2.2739,2.2745,2.2726,2.2732,2.2726,2.2727,2.2711,2.2712,2.2653,2.2647,2.2703,2.2703,2.2702,0,2.2696,2.2686,2.2696,2.2693,2.2696,2.2691,2.2689,2.2705,2.2702,2.2706,2.2698,2.2695,2.2693,2.2683,2.2691,2.2688,2.2694,2.2674,2.2694,2.2691,2.2694,2.2695,2.2694,2.267,2.2669,2.2668,2.2668,0,2.2643,2.265,2.2648,2.2648,2.2646,2.2646,2.2648,2.2644,2.2661,2.2658,2.2653,2.2652,2.2648,2.2645,2.2644,2.2647,2.266,2.2662,2.2658,2.2654,2.265,2.2653,2.2715,2.2663,2.2663,2.2664,2.2664,2.2664,2.2602,2.2595,2.2601,2.2598,2.2602,2.2603,2.2597,2.2606,2.2602,2.2602,2.2611,2.2605,2.2609,2.261,2.2612,2.2607,2.2616,2.261,2.2609,2.2607,2.2605,2.2652,2.2607,2.2607,2.2607,2.2607,2.2608,0,2.255,2.2556,2.2553,2.2556,2.2554,2.2568,2.2571,2.2568,2.2563,2.2566,2.2565,2.256,2.2557,2.2566,2.2564,2.2558,2.2565,2.2557,2.2558,2.2559,2.2597,2.26,2.2553,2.2553,2.2553,2.2553,2.2553,2.2553,2.2523,2.2512,2.252,2.2511,2.2516,2.2511,2.2512,2.2513,2.2517,2.2511,2.2509,2.2515,2.2521,2.252,2.2518,2.2521,2.252,2.251,2.2515,2.255,2.2556,2.2561,2.2564,2.251,2.251,2.2478,2.2477,2.2477]}]]